Location: Lake Crest
(37.6062°N, 88.9176°W)
Time: 00:16:50
(UTC+00:00)

Daily predictions for brighter satellites

Satellite Brightness Start Highest point End
(mag) Time Altitude Azimuth Time Altitude Azimuth Time Altitude Azimuth
STARLINK-48 4.0 00:01:05 10° WSW 00:04:52 54° NW 00:06:44 27° NNE
STARLINK-70 4.3 00:02:30 10° SSW 00:06:12 36° SE 00:06:59 32° ESE
STARLINK-68 4.1 00:04:11 10° SSW 00:07:56 39° SE 00:08:44 35° ESE
STARLINK-58 4.1 00:05:47 10° SSW 00:09:32 39° SE 00:10:13 36° ESE
CSL-04 Debris 4.3 00:04:20 10° SE 00:09:34 49° ENE 00:14:46 10° N
Shenzhou-11 Module 4.4 00:07:48 10° W 00:09:51 19° SW 00:11:54 10° SSE
STARLINK-62 4.0 00:07:25 10° SSW 00:11:13 42° SE 00:11:54 38° ESE
USA 229 DEB 4.4 00:05:40 10° NNW 00:12:17 36° NE 00:15:09 27° E
USA 229 4.4 00:05:46 10° NNW 00:12:22 36° NE 00:15:09 27° E
STARLINK-63 4.0 00:09:01 10° SSW 00:12:48 42° SE 00:13:22 39° ESE
Lacrosse 5 1.8 00:08:16 10° SW 00:13:22 89° NW 00:15:54 31° NE
OAO 3 Rocket 4.2 00:09:36 10° W 00:13:58 39° SSW 00:17:12 17° SE
Cosmos 2151 Rocket 3.7 00:10:49 10° N 00:15:03 45° E 00:19:15 10° SSE
STARLINK-72 3.9 00:12:13 10° SSW 00:16:02 43° SE 00:16:27 41° ESE
STARLINK-59 3.8 00:15:32 10° SSW 00:19:24 49° SE 00:19:45 47° ESE
STARLINK-55 3.7 00:18:47 10° SSW 00:22:41 52° SE 00:22:54 52° ESE
Cosmos 1461 2.9 00:19:37 10° SSW 00:23:18 51° SE 00:23:18 51° SE
STARLINK-28 3.6 00:20:27 10° SSW 00:24:22 55° SE 00:24:32 55° ESE
SKYMED 2 4.4 00:23:19 10° N 00:27:32 50° WNW 00:31:43 10° SSW
STARLINK-53 3.6 00:23:41 10° SW 00:27:38 59° SE 00:27:41 59° SE
STARLINK-54 3.5 00:25:21 10° SW 00:29:18 63° SE 00:29:18 63° SE
Abrixas rocket 4.2 00:28:15 10° WNW 00:30:10 20° NW 00:30:10 20° NW
Meteor 1-12 Rocket 4.2 00:24:52 10° N 00:30:40 66° E 00:36:19 10° SSE
Cosmos 1867 3.8 00:26:39 10° NW 00:32:05 68° WSW 00:37:26 10° SSE
Cosmos 2266 Rocket 3.9 00:26:03 10° S 00:32:24 73° E 00:38:46 10° N
STARLINK-34 3.5 00:28:38 10° SW 00:32:30 67° SSE 00:32:30 67° SSE
S3M 3.9 00:27:16 10° N 00:33:29 89° E 00:39:35 10° S
STARLINK-61 3.6 00:31:12 10° SW 00:35:11 70° NW 00:35:24 68° NNW
STARLINK-81 3.7 00:31:44 10° SW 00:35:22 62° SSE 00:35:22 62° SSE
NOAA 11 4.0 00:31:24 10° SSE 00:36:48 68° ENE 00:42:15 10° N
STARLINK-24 3.6 00:33:33 10° SW 00:37:15 70° S 00:37:15 70° S
STARLINK-77 3.7 00:35:02 10° SW 00:38:34 63° S 00:38:34 63° S
Meteor 2-9 Rocket 4.5 00:33:31 10° NNW 00:39:20 71° W 00:45:00 10° S
CZ-3B R/B 3.2 00:36:47 10° SSW 00:40:38 24° SSE 00:41:44 23° SE
STARLINK-25 3.7 00:36:40 10° SW 00:40:08 62° S 00:40:08 62° S
Okean 2 Rocket 3.8 00:37:12 10° NNW 00:41:36 54° W 00:45:59 10° S
Cosmos 1943 3.1 00:36:16 10° SSW 00:41:55 85° WNW 00:44:10 38° NNE
STARLINK-71 3.7 00:38:30 10° SW 00:42:02 68° SW 00:42:02 68° SW
STARLINK-79 3.8 00:40:00 10° SW 00:43:22 61° SSW 00:43:22 61° SSW
STARLINK-78 3.9 00:41:38 10° SW 00:44:58 60° SW 00:44:58 60° SW
Uosat 12 SS-18 rocket 4.2 00:42:47 10° NNW 00:46:41 64° NNW 00:46:41 64° NNW
STARLINK-57 3.9 00:43:22 10° SW 00:46:41 60° SW 00:46:41 60° SW
Meteor 1-13 Rocket 4.1 00:42:16 10° S 00:47:54 88° W 00:50:29 33° N
CZ-4C R/B 2.3 00:43:52 10° SW 00:48:42 63° NW 00:50:18 43° N
STARLINK-49 4.1 00:44:55 10° SW 00:48:07 56° SW 00:48:07 56° SW
DMSP B5D1-3 4.5 00:47:37 42° N 00:49:25 84° WNW 00:54:31 10° SSW
SL-4 R/B 4.4 00:46:56 10° NNW 00:47:35 13° NNW 00:47:35 13° NNW
STARLINK-27 4.1 00:46:35 10° SW 00:49:43 54° SW 00:49:43 54° SW
Cosmos 2084 Rocket 3.7 00:47:27 10° SSW 00:51:13 65° SW 00:51:13 65° SW
STARLINK-74 4.2 00:48:13 10° SW 00:51:18 52° SW 00:51:18 52° SW
STARLINK-39 4.3 00:49:54 10° SW 00:52:55 50° SW 00:52:55 50° SW
STARLINK 4.4 00:51:33 10° SW 00:54:31 48° WSW 00:54:31 48° WSW
STARLINK-42 4.5 00:53:19 10° SW 00:56:15 46° WSW 00:56:15 46° WSW
Cosmos 2369 Rocket 2.2 00:52:52 10° NNW 00:58:33 80° WSW 01:01:44 27° SSE
OAO 3 Copernicus 4.5 00:53:36 10° W 00:58:24 65° SSW 00:58:24 65° SSW
Cosmos 405 Rocket 4.3 01:00:05 10° NNW 01:03:25 32° W 01:06:45 10° SSW
Cosmos 1674 Rocket 4.3 01:00:32 10° SSW 01:04:42 52° W 01:04:42 52° W
ADEOS Rocket 4.2 01:09:59 26° S 01:09:59 26° S 01:12:24 10° S
CZ-4 R/B 3.7 01:07:02 10° SSW 01:10:09 23° W 01:13:15 10° NW
YAOGAN 1 4.3 01:10:36 10° SSW 01:14:26 31° W 01:18:16 10° NW
Cosmos 1943 Rocket 3.3 01:14:15 10° NW 01:19:31 42° WSW 01:24:41 10° S
Cosmos 2344 4.4 01:21:36 10° NNW 01:31:55 75° ENE 01:36:04 51° SE
USA 267 4.5 01:34:25 17° S 01:38:44 36° SW 01:44:39 10° WNW
NOSS 3-1 (C) 4.3 01:44:53 10° NW 01:52:42 67° WSW 01:53:08 66° SW
Lacrosse 5 4.4 01:53:20 10° WNW 01:55:07 16° WNW 01:55:07 16° WNW
CZ-4C R/B 4.0 10:05:56 35° S 10:05:56 35° S 10:10:45 10° S
FALCON 9 R/B 3.0 10:04:51 72° S 10:04:51 72° S 10:21:40 10° E
USA 234 3.3 10:04:41 10° NE 10:11:12 70° SE 10:11:38 68° SSE
Cosmos 1634 Rocket 4.3 10:16:52 10° S 10:22:58 64° E 10:29:04 10° NNE
Cosmos 2263 Rocket 4.3 10:29:24 15° N 10:29:24 15° N 10:30:18 10° NNE
COSMO-SKYMED 1 4.5 10:28:35 10° SE 10:32:15 27° ENE 10:34:25 18° NNE
Meteor 1-14 Rocket 4.5 10:30:03 10° S 10:35:57 72° E 10:41:56 10° NNE
GPS 2-04 Rocket1 3.8 10:49:35 39° SE 10:49:35 39° SE 10:52:47 10° E
Okean 1 4.1 10:52:06 44° SSE 10:52:06 44° SSE 10:54:52 10° S
Cosmos 1331 Rocket 4.5 10:46:12 10° S 10:51:13 59° ESE 10:56:19 10° NNE
Cosmos 1092 Rocket 3.8 10:50:23 53° NW 10:51:38 67° W 10:57:42 10° S
NOSS 3-2 (A) 4.1 10:48:14 10° S 10:53:36 50° ESE 10:59:33 10° NE
Cosmos 2221 Rocket 4.4 10:51:59 21° NNE 10:54:42 49° E 10:58:59 10° SSE
Cosmos 1844 Rocket 3.3 10:50:13 10° S 10:55:38 54° ESE 11:01:04 10° NNE
CENTAUR R/B 4.5 10:59:43 10° SSE 11:04:26 27° ESE 11:09:42 10° NE
USA 238 DEB 3.8 10:59:24 10° SSW 11:06:00 75° ESE 11:12:49 10° NE
USA 238 3.8 10:59:32 10° SSW 11:06:07 74° ESE 11:12:56 10° NE
Okean O Rocket 3.1 11:02:12 10° NNE 11:06:20 38° E 11:10:27 10° SSE
Cosmos 371 Rocket 3.1 11:03:09 10° SSW 11:07:59 83° WNW 11:12:52 10° NNE
Cosmos 1110 Rocket 3.8 11:03:10 10° SSW 11:08:21 84° WNW 11:13:33 10° NNE
Okean 1-7 4.5 11:11:38 24° SSW 11:11:38 24° SSW 11:13:36 10° SSW
ATLAS CENTAUR R/B 4.0 11:08:04 10° NNE 11:10:05 13° NE 11:12:02 10° ENE
PSLV R/B 3.7 11:08:02 10° N 11:12:09 71° WNW 11:16:14 10° SSW
ALOS 2.5 11:07:39 10° NNE 11:12:20 71° E 11:16:58 10° S
CZ-4B R/B 4.1 11:09:38 10° NNE 11:15:08 51° E 11:20:37 10° S
SJ-12 3.8 11:11:19 10° NNE 11:15:26 87° WNW 11:19:30 10° SSW
GRACE-FO 1 4.5 11:13:01 10° S 11:16:44 83° W 11:18:14 35° N
GRACE-FO 2 4.5 11:13:25 10° S 11:17:08 82° W 11:18:37 35° N
Cosmos 1500 3.7 11:15:51 10° S 11:19:36 60° E 11:23:23 10° NNE
SKYMED 2 3.4 11:15:51 10° S 11:20:11 84° WSW 11:23:04 21° NNW
Cosmos 1943 3.8 11:21:29 32° WSW 11:21:36 32° WSW 11:26:31 10° SSW
Cosmos 1428 Rocket 4.5 11:17:43 10° NNW 11:23:56 60° W 11:30:05 10° S
BREEZE-M DEB (TANK) 2.8 11:24:01 26° NNE 11:24:02 26° NNE 11:26:29 10° E
Cosmos 1515 3.6 11:24:28 21° N 11:26:56 89° WSW 11:30:45 10° S
Hubble Space Telescope 3.2 11:26:03 10° SSW 11:28:45 17° SSE 11:31:27 10° SE
Cosmos 2180 Rocket 4.4 11:28:55 10° SSW 11:35:01 71° W 11:41:11 10° N
Okean 3 3.3 11:33:01 14° NNW 11:36:37 69° W 11:40:49 10° S
USA 116 4.2 11:33:31 10° SSE 11:38:06 89° WSW 11:43:13 10° NNW
GEOS 3 Rocket 3.6 11:43:34 10° SE 11:48:39 83° NE 11:53:35 11° NNW
ATLAS 3B R/B 3.5 11:46:24 10° S 11:52:57 53° ESE 11:59:24 10° NE
Cosmos 44 Rocket 3.2 11:48:21 10° SW 11:53:14 71° WNW 11:58:03 10° NNE
Cosmos 2279 Rocket 4.4 11:47:48 10° SW 11:53:30 39° WNW 11:59:17 10° N
USA 234 3.8 11:48:03 10° NNE 11:53:53 36° NNW 11:59:01 13° W
